{"data":{"norad_id":44115,"intl_designator":"2019-020D","name":"O3B FM18","alt_names":[],"object_type":"PAYLOAD","status":"ACTIVE","operator":null,"country":"O3B","launch_date":"2019-04-04","launch_site_code":"FRGUI","launch_vehicle":null,"mission":null,"orbit_class":"UNKNOWN","rcs_meters":null,"size_class":null,"mass_kg":null,"dimensions":null,"purposes":["comms"],"wikipedia_slug":null,"has_3d_model":false,"image_url":null,"decayed_at":null,"tle_current":{"epoch":"2026-05-25T01:52:36.504192Z","epoch_age_seconds":64962,"freshness":"FRESH","line1":"1 44115U 19020D   26145.07820028 -.00000024  00000+0  00000+0 0  9997","line2":"2 44115   0.0530   0.0660 0002765  63.9912 295.9707  5.00115354130486","mean_motion":5.00115354,"eccentricity":0.0002765,"inclination_deg":0.053,"raan_deg":0.066,"arg_perigee_deg":63.9912,"mean_anomaly_deg":295.9707,"bstar":0,"rev_number":13048,"period_min":287.9335714216,"perigee_km":8061.8992551069005,"apogee_km":8069.8868037132,"semimajor_km":14444.03002941,"source":"CELESTRAK","updated_at":"2026-05-25T13:38:14.516094Z"}}}